Date String (YYYY-MM-DD hh:mm:ss) UTC,Instrument flags,absolute air pressure of the measurement (hPa),sample flow rate (lpm),inlet stack bypass flow (lpm),air temperature of the measurement (°C),ambient temperature measured by the external sensor (°C),aerosol sample conditioner tube jacket temperature (°C),OPC LED temperature (°C),internal box temperature (°C),relative humidity of the measurement (%),span deviation,mass concentration of particles derived from Lorenz-Mie calculation of OPC scattering (μg/m³),mass concentration of particles derived from Lorenz-Mie calculation of OPC scattering (μg/m³),mass concentration of particles derived from Lorenz-Mie calculation of OPC scattering (μg/m³)
DateTimeUTC,F1_M11,P_M11,Q1_M11,Q2_M11,T1_M11,T2_M11,T3_M11,T4_M11,T5_M11,U1_M11,ZSPAN_M11,X2_M11,X0_M11,X1_M11
2024-04-02 23:00:00,SystemResetWarning,0830.1,5.00,000.00,023.6,023.0,000.0,032.0,025.4,11.5,0000.0,0002.66,0005.33,0001.60
2024-04-02 23:01:00,SystemResetWarning,0830.1,5.00,000.00,023.6,023.0,000.0,032.0,025.4,11.5,0000.0,0002.64,0005.01,0001.62
2024-04-02 23:02:00,SystemResetWarning,0830.1,5.00,000.00,023.7,023.0,000.0,032.0,025.4,11.5,0000.0,0002.68,0004.98,0001.63
2024-04-02 23:03:00,SystemResetWarning,0830.1,5.00,000.00,023.7,023.0,000.0,032.0,025.4,11.9,0000.0,0002.65,0004.86,0001.63
2024-04-02 23:04:00,SystemResetWarning,0830.1,5.00,000.00,023.7,023.0,000.0,032.0,025.5,11.8,0000.0,0002.61,0004.78,0001.61
2024-04-02 23:05:00,SystemResetWarning,0830.1,5.01,000.00,023.7,023.1,000.0,032.0,025.5,11.5,0000.0,0002.62,0004.77,0001.61
2024-04-02 23:06:00,SystemResetWarning,0830.1,5.01,000.00,023.7,023.1,000.0,032.1,025.5,11.4,0000.0,0002.57,0004.53,0001.61
2024-04-02 23:07:00,SystemResetWarning,0830.1,5.00,000.00,023.7,023.1,000.0,032.1,025.5,11.3,0000.0,0002.60,0005.20,0001.63
2024-04-02 23:08:00,SystemResetWarning,0830.1,4.99,000.00,023.7,023.1,000.0,032.1,025.5,11.8,0000.0,0002.57,0005.33,0001.63
2024-04-02 23:09:00,SystemResetWarning,0830.1,4.99,000.00,023.7,023.1,000.0,032.1,025.5,11.9,0000.0,0002.52,0005.20,0001.62
2024-04-02 23:10:00,SystemResetWarning,0830.1,5.00,000.00,023.8,023.1,000.0,032.1,025.5,12.2,0000.0,0002.50,0005.03,0001.61
2024-04-02 23:11:00,SystemResetWarning,0830.1,5.00,000.00,023.8,023.2,000.0,032.1,025.5,12.6,0000.0,0002.52,0005.15,0001.60
2024-04-02 23:12:00,SystemResetWarning,0830.1,5.01,000.00,023.8,023.2,000.0,032.1,025.5,12.3,0000.0,0002.55,0005.29,0001.60
2024-04-02 23:13:00,SystemResetWarning,0830.1,5.01,000.00,023.8,023.2,000.0,032.1,025.5,12.1,0000.0,0002.53,0005.28,0001.59
2024-04-02 23:14:00,SystemResetWarning,0830.1,5.01,000.00,023.8,023.2,000.0,032.1,025.5,12.2,0000.0,0002.53,0005.32,0001.60
2024-04-02 23:15:00,SystemResetWarning,0830.1,4.99,000.00,023.8,023.2,000.0,032.1,025.5,12.3,0000.0,0002.54,0005.42,0001.60
2024-04-02 23:16:00,SystemResetWarning,0830.1,4.99,000.00,023.8,023.2,000.0,032.1,025.5,12.1,0000.0,0002.52,0005.35,0001.61
2024-04-02 23:17:00,SystemResetWarning,0830.1,5.00,000.00,023.8,023.2,000.0,032.2,025.5,11.8,0000.0,0002.56,0005.69,0001.61
2024-04-02 23:18:00,SystemResetWarning,0830.1,5.01,000.00,023.8,023.2,000.0,032.2,025.5,11.7,0000.0,0002.57,0005.55,0001.60
2024-04-02 23:19:00,SystemResetWarning,0830.1,5.00,000.00,023.8,023.2,000.0,032.2,025.6,11.7,0000.0,0002.56,0004.87,0001.61
2024-04-02 23:20:00,SystemResetWarning,0830.1,5.01,000.00,023.8,023.2,000.0,032.2,025.6,11.6,0000.0,0002.59,0005.07,0001.60
2024-04-02 23:21:00,SystemResetWarning,0830.1,5.01,000.00,023.8,023.2,000.0,032.2,025.6,11.8,0000.0,0002.60,0005.20,0001.59
2024-04-02 23:22:00,SystemResetWarning,0830.2,5.01,000.00,023.8,023.2,000.0,032.2,025.6,11.6,0000.0,0002.63,0005.26,0001.60
2024-04-02 23:23:00,SystemResetWarning,0830.2,4.99,000.00,023.9,023.2,000.0,032.2,025.6,11.6,0000.0,0002.61,0005.17,0001.61
2024-04-02 23:24:00,SystemResetWarning,0830.2,4.99,000.00,023.9,023.2,000.0,032.2,025.6,12.1,0000.0,0002.60,0005.09,0001.61
2024-04-02 23:25:00,SystemResetWarning,0830.2,5.00,000.00,023.9,023.3,000.0,032.2,025.6,12.0,0000.0,0002.60,0005.04,0001.61
2024-04-02 23:26:00,SystemResetWarning,0830.3,5.01,000.00,023.9,023.3,000.0,032.2,025.6,12.2,0000.0,0002.64,0005.03,0001.61
2024-04-02 23:27:00,SystemResetWarning,0830.3,5.00,000.00,023.9,023.3,000.0,032.2,025.7,12.1,0000.0,0002.61,0005.84,0001.60
2024-04-02 23:28:00,SystemResetWarning,0830.3,5.01,000.00,023.9,023.3,000.0,032.3,025.7,11.9,0000.0,0002.61,0006.75,0001.60
2024-04-02 23:29:00,SystemResetWarning,0830.3,5.00,000.00,023.9,023.3,000.0,032.3,025.7,11.7,0000.0,0002.58,0007.09,0001.60
2024-04-02 23:30:00,SystemResetWarning,0830.3,5.00,000.00,023.9,023.3,000.0,032.3,025.7,11.9,0000.0,0002.59,0007.22,0001.60
2024-04-02 23:31:00,SystemResetWarning,0830.2,5.00,000.00,024.0,023.3,000.0,032.3,025.7,11.8,0000.0,0002.61,0007.32,0001.58
2024-04-02 23:32:00,SystemResetWarning,0830.2,5.00,000.00,024.0,023.3,000.0,032.3,025.7,11.8,0000.0,0002.57,0007.16,0001.59
2024-04-02 23:33:00,SystemResetWarning,0830.3,4.99,000.00,024.0,023.3,000.0,032.3,025.7,12.1,0000.0,0002.56,0007.16,0001.59
2024-04-02 23:34:00,SystemResetWarning,0830.2,5.00,000.00,024.0,023.4,000.0,032.3,025.7,11.7,0000.0,0002.49,0006.99,0001.58
2024-04-02 23:35:00,SystemResetWarning,0830.2,5.00,000.00,024.0,023.4,000.0,032.3,025.7,11.9,0000.0,0002.56,0007.18,0001.59
2024-04-02 23:36:00,SystemResetWarning,0830.2,5.01,000.00,024.0,023.4,000.0,032.3,025.8,11.6,0000.0,0002.56,0007.37,0001.60
2024-04-02 23:37:00,SystemResetWarning,0830.2,5.00,000.00,024.0,023.4,000.0,032.4,025.8,11.6,0000.0,0002.51,0007.62,0001.60
2024-04-02 23:38:00,SystemResetWarning,0830.2,5.00,000.00,024.0,023.4,000.0,032.4,025.9,11.8,0000.0,0002.49,0007.30,0001.61
2024-04-02 23:39:00,SystemResetWarning,0830.2,5.00,000.00,024.0,023.4,000.0,032.4,025.9,12.0,0000.0,0002.53,0006.50,0001.60
2024-04-02 23:40:00,SystemResetWarning,0830.3,5.00,000.00,024.0,023.4,000.0,032.4,025.9,12.5,0000.0,0002.53,0005.57,0001.61
2024-04-02 23:41:00,SystemResetWarning,0830.3,5.00,000.00,024.1,023.4,000.0,032.4,025.9,11.9,0000.0,0002.54,0005.57,0001.62
2024-04-02 23:42:00,SystemResetWarning,0830.3,4.99,000.00,024.1,023.4,000.0,032.4,025.9,11.6,0000.0,0002.54,0005.43,0001.63
2024-04-02 23:43:00,SystemResetWarning,0830.4,4.99,000.00,024.1,023.4,000.0,032.4,025.9,11.6,0000.0,0002.51,0005.82,0001.63
2024-04-02 23:44:00,SystemResetWarning,0830.3,4.99,000.00,024.1,023.4,000.0,032.4,025.9,11.5,0000.0,0002.49,0005.94,0001.64
2024-04-02 23:45:00,SystemResetWarning,0830.3,5.00,000.00,024.1,023.4,000.0,032.4,025.9,11.6,0000.0,0002.50,0006.06,0001.65
2024-04-02 23:46:00,SystemResetWarning,0830.3,5.00,000.00,024.1,023.4,000.0,032.4,025.9,11.6,0000.0,0002.47,0005.98,0001.64
2024-04-02 23:47:00,SystemResetWarning,0830.4,5.00,000.00,024.1,023.5,000.0,032.5,025.9,11.7,0000.0,0002.42,0005.82,0001.63
2024-04-02 23:48:00,SystemResetWarning,0830.4,5.00,000.00,024.1,023.5,000.0,032.5,025.9,11.6,0000.0,0002.48,0005.99,0001.64
2024-04-02 23:49:00,SystemResetWarning,0830.3,5.01,000.00,024.1,023.5,000.0,032.5,025.9,11.7,0000.0,0002.50,0006.03,0001.65
2024-04-02 23:50:00,SystemResetWarning,0830.3,5.00,000.00,024.1,023.5,000.0,032.5,025.9,11.7,0000.0,0002.52,0006.49,0001.64
2024-04-02 23:51:00,SystemResetWarning,0830.3,5.00,000.00,024.1,023.5,000.0,032.5,026.0,11.6,0000.0,0002.50,0006.51,0001.63
2024-04-02 23:52:00,SystemResetWarning,0830.3,5.00,000.00,024.2,023.5,000.0,032.5,026.0,11.8,0000.0,0002.47,0006.41,0001.62
2024-04-02 23:53:00,SystemResetWarning,0830.3,5.00,000.00,024.2,023.5,000.0,032.5,026.0,12.0,0000.0,0002.48,0006.42,0001.61
2024-04-02 23:54:00,SystemResetWarning,0830.3,5.00,000.00,024.2,023.6,000.0,032.5,026.0,11.9,0000.0,0002.47,0006.26,0001.61
2024-04-02 23:55:00,SystemResetWarning,0830.3,5.00,000.00,024.2,023.6,000.0,032.5,026.0,11.6,0000.0,0002.48,0005.66,0001.60
2024-04-02 23:56:00,SystemResetWarning,0830.3,5.00,000.00,024.2,023.6,000.0,032.6,026.0,11.4,0000.0,0002.53,0005.59,0001.59
2024-04-02 23:57:00,SystemResetWarning,0830.3,5.00,000.00,024.2,023.6,000.0,032.6,026.0,11.3,0000.0,0002.54,0005.48,0001.60
2024-04-02 23:58:00,SystemResetWarning,0830.3,5.00,000.00,024.2,023.6,000.0,032.6,026.0,11.2,0000.0,0002.57,0005.61,0001.60
2024-04-02 23:59:00,SystemResetWarning,0830.3,5.00,000.00,024.2,023.5,000.0,032.6,026.0,11.3,0000.0,0002.54,0005.13,0001.58
